                ,  1.165,  1.315,  1.465,  1.615,  1.765,  1.915,  2.065,  2.215,  2.365,  2.515,  2.665,  2.815,  2.965,  3.115,  3.265,  3.415,  3.565,  3.715,  3.865,  4.015,  4.165,  4.315,  4.465,  4.615,  4.765,  4.915,  5.065,  5.215,  5.365,  5.515
2006/01/24 00:00,  999.0,   -0.1,  999.0,  999.0,  999.0,  999.0,  999.0,  999.0,  999.0,  999.0,  999.0,  999.0,  999.0,  999.0,  999.0,  999.0,  999.0,  999.0,  999.0,  999.0,  999.0,  999.0,  999.0,  999.0,  999.0,  999.0,    0.0,  999.0,  999.0,  999.0
2006/01/24 00:10,  999.0,    0.5,    0.2,    0.1,  999.0,  999.0,  999.0,  999.0,  999.0,  999.0,  999.0,  999.0,  999.0,  999.0,  999.0,  999.0,  999.0,  999.0,  999.0,  999.0,  999.0,  999.0,  999.0,  999.0,  999.0,  999.0,  999.0,  999.0,  999.0,  999.0
2006/01/24 00:20,   -0.3,    1.0,   -0.1,    0.5,  999.0,  999.0,  999.0,  999.0,    0.1,  999.0,  999.0,  999.0,  999.0,    0.1,  999.0,  999.0,  999.0,  999.0,  999.0,  999.0,  999.0,  999.0,  999.0,  999.0,  999.0,  999.0,  999.0,   -0.2,  999.0,  999.0
2006/01/24 00:30,  999.0,  999.0,  999.0,  999.0,  999.0,  999.0,  999.0,  999.0,  999.0,  999.0,  999.0,  999.0,  999.0,  999.0,  999.0,  999.0,  999.0,  999.0,  999.0,  999.0,  999.0,  999.0,  999.0,  999.0,  999.0,  999.0,  999.0,  999.0,  999.0,  999.0
2006/01/24 00:40,   -0.5,  999.0,  999.0,  999.0,  999.0,  999.0,  999.0,    0.1,  999.0,  999.0,  999.0,  999.0,  999.0,  999.0,  999.0,  999.0,  999.0,  999.0,  999.0,  999.0,  999.0,  999.0,  999.0,  999.0,  999.0,  999.0,  999.0,  999.0,  999.0,  999.0
2006/01/24 00:50,  999.0,    0.3,  999.0,  999.0,  999.0,  999.0,  999.0,  999.0,  999.0,  999.0,  999.0,  999.0,  999.0,  999.0,  999.0,  999.0,  999.0,  999.0,  999.0,  999.0,  999.0,  999.0,  999.0,  999.0,  999.0,  999.0,  999.0,  999.0,  999.0,  999.0
2006/01/24 01:00,   -0.2,   -0.2,   -1.0,  999.0,  999.0,  999.0,  999.0,  999.0,  999.0,  999.0,  999.0,  999.0,  999.0,  999.0,  999.0,  999.0,  999.0,  999.0,  999.0,  999.0,  999.0,  999.0,  999.0,  999.0,  999.0,  999.0,  999.0,  999.0,  999.0,  999.0
2006/01/24 01:10,    0.1,  999.0,   -1.2,  999.0,  999.0,  999.0,  999.0,  999.0,  999.0,  999.0,  999.0,  999.0,  999.0,  999.0,  999.0,  999.0,  999.0,  999.0,  999.0,  999.0,  999.0,  999.0,  999.0,  999.0,  999.0,  999.0,  999.0,  999.0,  999.0,  999.0
2006/01/24 01:20,  999.0,  999.0,  999.0,  999.0,  999.0,  999.0,  999.0,  999.0,  999.0,  999.0,  999.0,  999.0,  999.0,  999.0,  999.0,  999.0,  999.0,  999.0,  999.0,  999.0,  999.0,  999.0,  999.0,  999.0,  999.0,  999.0,  999.0,  999.0,  999.0,  999.0
2006/01/24 01:30,   -0.4,  999.0,  999.0,   -0.4,  999.0,  999.0,  999.0,  999.0,  999.0,  999.0,  999.0,  999.0,  999.0,  999.0,  999.0,  999.0,  999.0,  999.0,  999.0,  999.0,  999.0,  999.0,  999.0,  999.0,  999.0,  999.0,  999.0,  999.0,  999.0,  999.0
2006/01/24 01:40,   -0.5,  999.0,    0.0,  999.0,  999.0,  999.0,  999.0,  999.0,  999.0,  999.0,  999.0,  999.0,  999.0,  999.0,  999.0,  999.0,  999.0,  999.0,  999.0,  999.0,  999.0,  999.0,  999.0,  999.0,  999.0,  999.0,  999.0,  999.0,  999.0,  999.0
2006/01/24 01:50,   -0.4,   -1.0,   -0.4,    0.2,  999.0,  999.0,  999.0,  999.0,  999.0,  999.0,  999.0,  999.0,  999.0,  999.0,  999.0,  999.0,  999.0,  999.0,  999.0,  999.0,  999.0,  999.0,  999.0,  999.0,  999.0,  999.0,  999.0,  999.0,  999.0,  999.0
2006/01/24 02:00,   -0.5,   -0.9,   -0.9,  999.0,  999.0,  999.0,  999.0,  999.0,  999.0,  999.0,  999.0,  999.0,  999.0,  999.0,  999.0,  999.0,  999.0,  999.0,  999.0,  999.0,  999.0,  999.0,  999.0,  999.0,  999.0,  999.0,  999.0,  999.0,  999.0,  999.0
2006/01/24 02:10,   -0.5,  999.0,  999.0,  999.0,  999.0,  999.0,  999.0,  999.0,  999.0,  999.0,  999.0,  999.0,  999.0,  999.0,  999.0,  999.0,  999.0,  999.0,  999.0,  999.0,  999.0,  999.0,  999.0,  999.0,  999.0,  999.0,  999.0,  999.0,  999.0,  999.0
2006/01/24 02:20,   -0.3,   -0.6,  999.0,  999.0,  999.0,  999.0,  999.0,  999.0,  999.0,  999.0,  999.0,  999.0,  999.0,  999.0,  999.0,  999.0,  999.0,  999.0,  999.0,  999.0,  999.0,  999.0,  999.0,  999.0,  999.0,  999.0,  999.0,  999.0,  999.0,  999.0
2006/01/24 02:30,   -0.5,   -0.5,  999.0,   -0.3,  999.0,  999.0,  999.0,  999.0,  999.0,  999.0,  999.0,  999.0,  999.0,  999.0,  999.0,  999.0,  999.0,  999.0,  999.0,  999.0,  999.0,  999.0,  999.0,  999.0,  999.0,  999.0,  999.0,  999.0,  999.0,  999.0
2006/01/24 02:40,   -1.0,  999.0,  999.0,  999.0,  999.0,  999.0,    0.2,  999.0,  999.0,  999.0,  999.0,  999.0,  999.0,  999.0,  999.0,  999.0,  999.0,  999.0,  999.0,  999.0,  999.0,  999.0,  999.0,  999.0,  999.0,  999.0,  999.0,  999.0,  999.0,  999.0
2006/01/24 02:50,   -0.4,   -0.2,  999.0,  999.0,  999.0,  999.0,  999.0,  999.0,  999.0,  999.0,  999.0,  999.0,  999.0,  999.0,  999.0,  999.0,  999.0,  999.0,  999.0,  999.0,  999.0,  999.0,  999.0,  999.0,  999.0,  999.0,  999.0,  999.0,  999.0,  999.0
2006/01/24 03:00,  999.0,  999.0,  999.0,  999.0,  999.0,  999.0,  999.0,  999.0,  999.0,  999.0,  999.0,  999.0,  999.0,  999.0,  999.0,  999.0,  999.0,  999.0,  999.0,  999.0,  999.0,  999.0,  999.0,  999.0,  999.0,  999.0,   -1.2,   -1.2,   -1.2,  999.0
2006/01/24 03:10,    0.1,    0.4,  999.0,  999.0,  999.0,  999.0,   -0.2,  999.0,  999.0,  999.0,  999.0,  999.0,  999.0,  999.0,  999.0,  999.0,  999.0,   -2.2,   -2.3,   -2.7,   -2.5,  999.0,   -1.8,   -1.4,  999.0,   -1.2,   -1.3,   -1.3,   -1.1,   -1.1
2006/01/24 03:20,   -0.5,   -0.0,  999.0,  999.0,   -0.9,   -1.0,   -0.6,    0.2,    0.1,    0.8,  999.0,   -0.5,   -2.6,   -3.0,   -2.8,   -2.9,   -2.8,   -2.9,   -2.7,   -3.0,   -2.9,   -2.9,   -2.4,   -1.4,   -1.2,   -1.3,   -1.4,   -1.3,   -1.2,   -1.1
2006/01/24 03:30,   -0.3,    0.1,   -2.6,   -2.3,   -1.2,   -0.9,  999.0,   -0.1,   -0.9,   -1.0,   -0.5,    0.0,   -3.4,   -3.4,   -3.5,   -3.5,   -3.6,   -3.6,   -3.3,   -3.6,   -3.3,   -3.5,   -2.5,   -1.6,   -1.5,   -1.4,   -1.4,   -1.3,   -1.2,   -1.2
2006/01/24 03:40,   -1.0,   -1.2,   -1.9,   -2.3,   -1.5,   -1.4,   -1.3,   -1.0,  999.0,   -2.5,   -2.9,   -3.4,   -3.4,   -3.3,   -3.3,   -3.1,   -3.3,   -3.1,   -3.3,   -3.2,   -3.5,   -3.1,   -2.1,   -1.4,   -1.3,   -1.4,   -1.2,   -1.1,   -1.1,   -1.2
2006/01/24 03:50,   -1.1,   -1.2,   -1.4,   -1.4,   -1.3,   -1.2,   -1.1,   -0.9,   -1.3,   -2.1,   -1.3,   -2.9,   -2.3,   -3.0,   -3.2,   -3.3,   -3.3,   -3.4,   -3.3,   -3.4,   -3.3,   -3.2,   -2.5,   -1.6,   -1.3,   -1.2,   -1.2,   -1.2,   -1.3,   -1.4
2006/01/24 04:00,   -1.6,   -1.2,   -1.1,   -1.4,   -2.3,   -2.3,   -2.1,   -2.4,   -2.4,   -2.7,   -2.6,   -2.6,   -2.5,   -2.4,   -2.6,   -2.5,   -2.4,   -2.4,   -2.4,   -2.3,   -2.5,   -2.5,   -2.4,   -1.5,   -1.1,   -1.2,   -1.2,   -1.4,   -1.4,   -1.4
2006/01/24 04:10,   -0.4,   -2.8,    0.2,   -1.4,   -2.5,   -2.0,   -2.1,   -1.9,   -2.3,   -2.4,   -2.2,   -2.5,   -2.6,   -2.3,   -2.8,   -2.5,   -2.7,   -2.5,   -2.4,   -2.5,   -2.4,   -2.5,   -2.4,   -1.3,   -1.0,  999.0,  999.0,   -1.3,   -1.0,   -1.1
2006/01/24 04:20,   -0.7,   -1.0,   -0.5,   -0.4,   -0.6,   -0.6,   -0.5,   -1.3,   -1.7,   -1.2,   -0.5,    0.1,  999.0,  999.0,   -1.9,  999.0,  999.0,  999.0,  999.0,  999.0,  999.0,  999.0,  999.0,  999.0,  999.0,  999.0,  999.0,  999.0,  999.0,  999.0
2006/01/24 04:30,   -2.3,   -2.4,   -1.6,   -0.7,   -0.7,   -0.8,   -1.0,   -0.9,   -0.5,   -0.5,    0.1,   -3.4,   -1.3,   -1.4,   -2.3,   -1.9,   -1.2,   -1.0,  999.0,  999.0,  999.0,  999.0,  999.0,  999.0,  999.0,  999.0,  999.0,  999.0,  999.0,  999.0
2006/01/24 04:40,   -2.9,   -2.2,   -1.6,   -1.0,   -2.2,   -2.0,   -1.5,   -1.4,   -0.8,   -0.6,   -0.1,   -0.1,   -0.5,  999.0,   -1.0,   -0.8,   -0.9,   -1.0,  999.0,  999.0,  999.0,  999.0,  999.0,  999.0,   -0.2,  999.0,  999.0,  999.0,  999.0,  999.0
2006/01/24 04:50,   -2.0,   -2.1,   -1.5,   -1.0,   -0.7,   -0.2,   -0.3,    0.1,    0.1,   -0.0,  999.0,    0.3,   -0.0,  999.0,  999.0,  999.0,   -0.3,  999.0,  999.0,  999.0,  999.0,  999.0,  999.0,  999.0,  999.0,  999.0,    0.1,  999.0,  999.0,  999.0
2006/01/24 05:00,   -1.5,   -1.8,   -1.4,   -1.1,   -0.4,   -0.3,   -0.0,   -0.8,   -0.4,   -0.2,    0.5,  999.0,   -0.3,   -0.5,  999.0,  999.0,  999.0,  999.0,  999.0,  999.0,  999.0,  999.0,  999.0,  999.0,  999.0,  999.0,  999.0,  999.0,  999.0,  999.0
2006/01/24 05:10,   -1.0,   -1.4,   -0.4,   -0.7,   -1.1,   -0.9,   -0.8,   -0.5,   -0.6,   -0.4,    0.1,  999.0,  999.0,  999.0,  999.0,  999.0,  999.0,    0.1,  999.0,  999.0,  999.0,  999.0,  999.0,  999.0,  999.0,  999.0,  999.0,  999.0,  999.0,  999.0
2006/01/24 05:20,   -1.0,   -0.8,   -0.8,   -1.0,   -0.9,   -0.7,   -0.7,   -0.3,   -0.1,  999.0,  999.0,  999.0,  999.0,  999.0,  999.0,  999.0,  999.0,  999.0,  999.0,   -0.5,  999.0,  999.0,  999.0,  999.0,  999.0,  999.0,  999.0,  999.0,  999.0,  999.0
2006/01/24 05:30,   -1.4,   -1.5,   -2.1,   -2.1,   -1.7,   -1.5,   -1.3,   -1.0,   -1.0,   -1.0,   -1.0,   -0.4,   -0.5,  999.0,  999.0,    0.2,   -0.2,  999.0,  999.0,    0.1,  999.0,  999.0,  999.0,  999.0,  999.0,  999.0,  999.0,  999.0,  999.0,  999.0
2006/01/24 05:40,   -2.5,   -2.4,   -2.2,   -2.8,   -2.6,   -1.8,   -1.4,   -1.9,   -1.6,   -1.4,   -1.9,   -1.2,   -0.4,   -0.7,   -1.2,   -0.5,   -1.2,   -1.7,   -1.2,   -1.0,  999.0,  999.0,  999.0,  999.0,  999.0,  999.0,  999.0,  999.0,  999.0,  999.0
2006/01/24 05:50,   -3.9,   -3.2,   -3.2,   -4.1,   -3.8,   -3.3,   -2.9,   -2.4,   -2.0,   -2.0,   -1.8,   -1.1,   -1.4,   -2.3,   -1.7,   -2.1,   -1.4,   -1.4,   -1.2,   -0.6,   -1.0,   -0.4,   -1.0,   -0.1,  999.0,  999.0,  999.0,  999.0,  999.0,  999.0
2006/01/24 06:00,   -3.4,   -3.6,   -3.5,   -3.9,   -4.2,   -4.1,   -4.0,   -3.7,   -3.3,   -3.0,   -2.8,   -2.8,   -2.5,   -2.3,   -2.1,   -1.9,   -1.6,   -1.0,   -0.7,   -0.5,   -0.6,   -0.4,  999.0,  999.0,   -0.1,  999.0,  999.0,  999.0,  999.0,  999.0
2006/01/24 06:10,   -3.8,   -4.4,   -3.9,   -3.5,   -3.3,   -3.2,   -3.2,   -3.1,   -3.0,   -3.0,   -2.8,   -2.6,   -2.4,   -2.0,   -1.7,   -1.4,   -1.1,   -0.7,   -0.8,   -1.0,   -1.0,   -0.6,  999.0,  999.0,  999.0,  999.0,  999.0,  999.0,  999.0,  999.0
2006/01/24 06:20,   -4.3,   -2.6,   -3.4,   -2.9,   -2.7,   -2.7,   -2.6,   -2.4,   -2.3,   -2.0,   -1.9,   -2.3,   -2.0,   -1.8,   -1.4,   -1.2,   -1.0,   -0.7,   -0.5,   -0.9,   -0.7,  999.0,  999.0,  999.0,  999.0,  999.0,  999.0,  999.0,  999.0,  999.0
2006/01/24 06:30,   -3.5,   -3.2,   -3.0,   -2.8,   -2.5,   -2.3,   -2.5,   -2.5,   -2.9,   -2.5,   -2.3,   -2.0,   -1.5,   -1.4,   -1.4,   -1.0,   -0.9,   -0.9,   -0.8,   -0.4,    0.0,  999.0,  999.0,  999.0,  999.0,  999.0,  999.0,  999.0,  999.0,  999.0
2006/01/24 06:40,  999.0,   -1.9,   -1.7,   -1.6,   -1.9,   -2.1,   -2.9,   -2.7,   -2.9,   -3.0,   -3.1,   -2.9,   -2.8,   -2.6,   -2.4,   -2.1,   -1.7,   -1.4,   -1.3,   -0.9,  999.0,    0.2,   -0.2,  999.0,  999.0,  999.0,  999.0,  999.0,  999.0,  999.0
2006/01/24 06:50,   -0.4,   -1.7,   -1.4,   -0.2,   -0.0,   -1.1,   -0.5,   -0.6,   -1.0,   -1.5,   -1.7,   -1.3,   -1.4,   -1.4,   -1.1,   -0.6,   -1.0,   -0.6,   -0.6,   -0.4,   -0.3,   -0.0,  999.0,  999.0,  999.0,  999.0,  999.0,  999.0,  999.0,  999.0
2006/01/24 07:00,   -0.5,   -0.1,    0.2,  999.0,   -0.8,   -1.4,   -1.6,   -1.6,   -1.1,   -1.1,   -2.0,   -2.2,   -1.8,   -2.0,   -1.8,   -1.5,   -1.1,   -0.8,   -0.5,   -0.6,  999.0,  999.0,  999.0,  999.0,  999.0,  999.0,  999.0,  999.0,  999.0,  999.0
2006/01/24 07:10,   -3.2,   -3.5,   -3.3,   -3.2,   -3.3,   -2.9,   -2.6,   -2.9,   -3.1,   -2.9,   -2.6,   -2.4,   -2.2,   -2.1,   -1.9,   -1.7,   -1.4,   -1.1,   -1.0,   -0.8,   -0.6,  999.0,  999.0,  999.0,  999.0,  999.0,  999.0,  999.0,  999.0,  999.0
2006/01/24 07:20,   -2.6,   -2.7,   -2.6,   -2.7,   -2.7,   -2.5,   -2.5,   -2.6,   -2.6,   -2.5,   -2.3,   -2.2,   -2.1,   -2.2,   -1.9,   -1.7,   -1.6,   -1.4,   -1.2,   -1.2,   -1.0,   -0.7,   -0.5,  999.0,  999.0,  999.0,  999.0,  999.0,  999.0,  999.0
2006/01/24 07:30,   -3.8,   -3.8,   -3.6,   -3.5,   -3.6,   -3.5,   -3.3,   -3.4,   -3.2,   -3.1,   -3.0,   -2.9,   -2.6,   -2.4,   -2.3,   -2.1,   -1.9,   -1.8,   -1.7,   -1.4,   -1.2,   -0.9,   -0.7,   -0.6,  999.0,   -0.3,   -0.3,  999.0,  999.0,  999.0
2006/01/24 07:40,   -3.6,   -3.7,   -3.3,   -3.1,   -2.9,   -2.8,   -3.0,   -2.8,   -2.6,   -2.4,   -2.3,   -2.2,   -2.1,   -1.7,   -1.9,   -2.0,   -2.2,   -2.1,   -1.9,   -1.7,   -1.5,   -1.0,   -0.6,  999.0,  999.0,  999.0,  999.0,  999.0,  999.0,  999.0
2006/01/24 07:50,   -4.1,   -4.1,   -3.7,   -3.5,   -3.4,   -3.4,   -3.3,   -3.2,   -2.9,   -2.7,   -2.5,   -2.4,   -2.2,   -2.0,   -1.9,   -1.7,   -1.6,   -1.6,   -1.8,   -1.7,   -1.4,   -0.9,   -0.6,   -0.4,   -0.5,   -0.7,   -0.5,  999.0,  999.0,   -0.1
2006/01/24 08:00,   -4.3,   -4.2,   -4.1,   -4.4,   -4.4,   -3.9,   -3.9,   -3.6,   -3.5,   -3.1,   -2.7,   -2.4,   -2.3,   -2.4,   -2.1,   -1.8,   -1.6,   -1.8,   -1.8,   -1.3,   -1.3,   -0.9,   -0.8,   -0.4,   -0.1,  999.0,   -1.0,   -1.2,   -1.1,   -0.1
2006/01/24 08:10,   -3.8,   -3.3,   -2.8,   -3.7,   -3.4,   -3.4,   -4.0,   -2.9,   -3.2,   -2.7,   -2.4,   -2.2,   -2.1,   -2.0,   -1.6,   -1.7,   -1.5,   -1.4,   -1.3,   -1.1,   -1.1,   -1.0,   -0.7,   -0.4,   -0.7,   -0.5,  999.0,   -1.3,   -1.0,   -0.2
2006/01/24 08:20,   -3.0,   -3.2,   -3.2,   -3.2,   -3.1,   -3.0,   -2.9,   -2.9,   -2.8,   -2.7,   -2.5,   -2.2,   -2.1,   -2.1,   -1.9,   -1.5,   -1.4,   -1.2,   -1.2,   -1.0,   -1.0,   -1.0,   -0.6,   -0.2,   -0.2,  999.0,   -0.0,   -0.4,  999.0,  999.0
2006/01/24 08:30,   -2.3,   -2.3,   -2.2,   -2.0,   -2.1,   -2.2,   -2.2,   -2.2,   -2.1,   -2.0,   -1.9,   -2.0,   -2.1,   -2.0,   -1.9,   -1.8,   -1.6,   -1.5,   -1.4,   -1.3,   -1.2,   -1.8,   -2.0,   -2.0,   -1.6,   -1.0,   -1.5,   -1.6,   -1.2,   -0.5
2006/01/24 08:40,   -2.0,   -2.1,   -2.0,   -1.7,   -1.7,   -1.7,   -1.5,   -1.6,   -1.7,   -1.9,   -2.5,   -2.6,   -2.6,   -2.6,   -2.5,   -2.3,  999.0,   -2.1,   -2.1,   -2.3,   -2.0,   -2.0,   -1.6,   -1.6,   -1.3,   -1.0,   -0.6,   -0.7,   -0.2,    0.2
2006/01/24 08:50,   -2.1,   -1.9,   -1.9,   -1.7,   -1.5,   -1.4,   -1.4,   -1.3,   -1.2,   -2.8,   -3.3,   -3.0,   -2.9,   -2.7,   -2.6,   -2.3,   -2.1,   -1.8,   -1.5,   -1.4,   -1.3,   -1.4,   -1.5,   -1.2,   -0.9,   -1.1,   -0.8,   -0.9,   -0.0,   -0.1
2006/01/24 09:00,   -1.8,   -1.9,   -1.7,   -1.7,   -1.5,   -1.3,   -1.1,   -1.7,   -2.6,   -2.6,   -2.7,   -2.7,   -2.6,   -2.6,   -2.3,   -2.5,   -2.4,   -2.5,   -2.3,   -2.1,   -1.9,   -1.5,   -1.2,   -0.6,   -0.8,   -0.7,   -0.6,  999.0,  999.0,  999.0
2006/01/24 09:10,   -2.0,   -1.8,   -1.7,   -1.5,   -0.1,   -0.1,   -0.5,   -1.1,   -2.3,   -2.2,   -2.2,   -2.3,   -2.3,   -2.1,   -2.0,   -1.8,   -1.5,   -1.4,   -1.4,   -1.2,   -1.4,   -0.9,   -0.9,   -0.5,   -1.0,   -1.1,   -0.8,   -0.8,  999.0,   -1.6
2006/01/24 09:20,   -1.9,   -1.9,   -1.5,   -0.9,   -0.2,   -0.2,   -0.7,   -0.3,   -0.5,   -1.2,   -1.9,   -2.1,   -2.0,   -1.8,   -1.7,   -1.3,   -1.2,   -0.9,   -0.9,   -0.6,   -0.8,   -0.8,  999.0,  999.0,   -1.0,   -1.4,   -1.0,   -0.6,  999.0,  999.0
2006/01/24 09:30,   -0.9,   -0.9,   -1.3,    0.3,   -0.1,   -0.1,    0.2,   -0.1,   -1.2,   -2.0,   -2.0,   -2.1,   -1.8,   -1.7,   -1.5,   -1.2,   -1.1,   -0.8,   -0.4,   -0.2,   -0.3,  999.0,  999.0,   -0.1,   -0.2,  999.0,  999.0,  999.0,   -0.3,  999.0
2006/01/24 09:40,   -0.5,   -0.1,  999.0,    0.2,    0.1,   -0.0,   -0.1,    0.1,   -0.3,   -1.3,   -1.5,   -1.7,   -1.7,   -1.4,   -1.2,   -0.7,   -0.8,   -0.7,   -0.3,   -0.5,  999.0,  999.0,  999.0,  999.0,  999.0,  999.0,  999.0,  999.0,  999.0,  999.0
2006/01/24 09:50,   -0.1,    0.4,   -0.2,  999.0,    0.1,   -0.2,   -0.3,   -0.2,   -0.2,   -0.2,   -0.5,   -0.8,   -0.6,   -0.7,   -0.6,   -0.4,   -0.5,   -0.5,   -0.6,   -0.7,   -0.6,  999.0,  999.0,  999.0,  999.0,  999.0,  999.0,  999.0,  999.0,  999.0
2006/01/24 10:00,    0.0,    0.4,    0.1,  999.0,  999.0,  999.0,   -0.1,    0.0,    0.1,   -1.1,    0.1,   -1.1,   -1.0,   -1.0,   -0.9,   -0.9,   -1.0,   -0.9,   -0.7,   -0.4,   -0.9,  999.0,  999.0,  999.0,  999.0,  999.0,  999.0,  999.0,  999.0,  999.0
2006/01/24 10:10,   -0.3,   -0.0,   -0.3,  999.0,  999.0,  999.0,   -0.3,   -0.2,   -0.3,   -0.4,   -0.2,   -1.7,   -1.5,   -1.3,   -1.3,   -1.1,   -1.0,   -0.8,   -0.9,   -0.8,  999.0,  999.0,  999.0,  999.0,  999.0,  999.0,  999.0,  999.0,  999.0,  999.0
2006/01/24 10:20,   -0.3,   -0.0,   -0.3,  999.0,  999.0,   -0.6,    0.2,  999.0,    0.5,   -0.2,    0.3,  999.0,   -1.6,   -1.7,   -1.4,   -1.2,   -1.2,   -1.1,   -1.0,   -0.8,   -0.5,  999.0,  999.0,  999.0,  999.0,  999.0,  999.0,  999.0,  999.0,  999.0
2006/01/24 10:30,   -0.2,   -0.8,   -0.3,  999.0,   -0.2,  999.0,    0.2,  999.0,  999.0,    0.4,    0.3,    0.2,   -1.8,   -1.7,   -1.6,   -1.4,   -1.2,   -1.0,   -0.9,   -0.5,   -0.6,   -0.2,  999.0,  999.0,   -0.1,  999.0,  999.0,  999.0,  999.0,  999.0
2006/01/24 10:40,   -0.3,   -0.4,  999.0,  999.0,  999.0,  999.0,  999.0,   -0.4,   -0.1,   -0.3,  999.0,  999.0,   -1.9,   -1.8,   -1.5,   -1.3,   -1.1,   -1.2,   -1.3,   -1.2,   -0.9,   -0.6,   -0.5,   -0.3,  999.0,  999.0,  999.0,  999.0,  999.0,  999.0
2006/01/24 10:50,   -0.2,   -0.1,  999.0,  999.0,  999.0,  999.0,    0.1,  999.0,   -0.1,    0.2,  999.0,   -0.6,   -1.5,   -1.3,   -1.2,   -1.0,   -1.1,   -1.1,   -1.0,   -0.7,   -0.4,   -1.0,   -1.0,   -0.6,   -0.3,  999.0,   -0.1,  999.0,  999.0,  999.0
2006/01/24 11:00,   -0.2,   -1.1,  999.0,   -0.2,  999.0,  999.0,  999.0,  999.0,  999.0,   -0.3,  999.0,   -1.2,   -1.5,   -1.3,   -1.2,   -0.9,   -0.9,   -0.8,   -0.7,   -0.6,   -0.2,  999.0,  999.0,   -0.3,  999.0,  999.0,  999.0,  999.0,  999.0,  999.0
2006/01/24 11:10,  999.0,   -2.2,  999.0,   -0.3,  999.0,  999.0,  999.0,   -0.2,   -0.5,  999.0,  999.0,   -1.9,   -2.1,   -2.0,   -1.7,   -1.0,   -1.0,   -1.0,   -1.0,   -0.5,   -0.5,   -0.2,   -0.2,  999.0,  999.0,  999.0,  999.0,  999.0,  999.0,  999.0
2006/01/24 11:20,  999.0,   -1.6,    0.3,   -0.3,  999.0,    0.3,    0.1,   -0.0,    0.0,    0.2,  999.0,  999.0,   -1.8,   -1.7,   -1.2,   -1.0,   -0.9,   -1.0,   -0.9,   -0.8,   -0.4,  999.0,  999.0,   -1.2,  999.0,  999.0,   -0.1,  999.0,  999.0,  999.0
2006/01/24 11:30,   -0.2,   -2.0,    0.4,    0.1,  999.0,    0.2,    0.3,  999.0,  999.0,   -0.1,  999.0,  999.0,  999.0,  999.0,  999.0,   -0.4,   -0.5,   -0.5,   -0.3,  999.0,  999.0,  999.0,   -0.8,   -0.2,   -0.0,  999.0,  999.0,  999.0,  999.0,  999.0
2006/01/24 11:40,  999.0,   -1.0,  999.0,  999.0,   -0.0,   -0.3,    0.1,   -0.1,    0.2,   -0.3,    0.1,  999.0,   -0.1,  999.0,  999.0,   -0.2,   -0.4,  999.0,  999.0,  999.0,  999.0,  999.0,  999.0,   -0.2,  999.0,  999.0,  999.0,  999.0,  999.0,  999.0
2006/01/24 11:50,   -0.3,   -1.3,    0.6,    0.7,    0.3,   -0.0,   -0.1,   -0.3,    0.2,   -0.0,  999.0,  999.0,  999.0,  999.0,    0.0,   -0.3,  999.0,  999.0,  999.0,  999.0,   -0.2,  999.0,  999.0,  999.0,   -0.2,  999.0,  999.0,   -0.1,  999.0,  999.0
2006/01/24 12:00,   -0.3,   -1.2,  999.0,    0.2,  999.0,    0.2,    0.2,    0.1,  999.0,    0.4,   -0.2,   -0.3,  999.0,  999.0,  999.0,    0.1,  999.0,  999.0,  999.0,  999.0,  999.0,  999.0,  999.0,  999.0,  999.0,  999.0,  999.0,  999.0,  999.0,  999.0
2006/01/24 12:10,   -1.4,   -1.1,   -0.2,  999.0,   -0.1,   -0.1,   -0.1,   -0.3,   -0.2,   -0.2,   -0.5,   -0.5,   -0.5,   -0.6,  999.0,   -0.2,   -0.3,   -0.3,   -0.1,   -0.3,  999.0,  999.0,  999.0,   -0.6,  999.0,  999.0,  999.0,  999.0,  999.0,  999.0
2006/01/24 12:20,   -2.0,   -0.7,    0.5,    0.1,  999.0,   -0.3,   -0.1,   -0.2,   -0.1,   -0.6,   -0.3,  999.0,    0.2,  999.0,   -0.3,   -0.3,   -0.7,   -0.7,   -0.5,   -0.0,  999.0,  999.0,    0.2,   -0.0,  999.0,  999.0,  999.0,  999.0,  999.0,  999.0
2006/01/24 12:30,   -1.6,   -0.9,   -0.1,    0.2,    0.2,    0.3,    0.3,    0.0,    0.2,    0.3,   -0.0,    0.0,   -0.1,   -0.4,   -0.3,   -0.6,   -0.6,   -0.8,   -0.3,   -0.2,  999.0,  999.0,  999.0,   -0.6,  999.0,  999.0,  999.0,  999.0,  999.0,  999.0
2006/01/24 12:40,   -1.3,   -0.6,  999.0,    0.0,    0.4,    0.1,    0.1,   -0.2,    0.1,    0.1,    0.2,    0.3,   -0.0,   -0.1,   -0.2,   -0.1,   -0.7,   -0.4,   -0.2,   -0.9,  999.0,  999.0,  999.0,   -0.5,  999.0,  999.0,  999.0,  999.0,  999.0,   -0.1
2006/01/24 12:50,   -1.3,   -0.7,    0.2,   -0.2,    0.3,    0.3,    0.0,    0.0,    0.0,    0.5,    0.6,  999.0,    0.4,    0.3,    0.3,    0.4,  999.0,  999.0,  999.0,  999.0,    0.2,  999.0,  999.0,  999.0,  999.0,  999.0,  999.0,  999.0,  999.0,  999.0
2006/01/24 13:00,   -1.6,   -0.7,   -0.2,   -0.0,   -0.5,   -0.2,   -0.3,   -0.0,    0.2,    0.2,    0.1,    0.3,  999.0,   -0.0,  999.0,  999.0,  999.0,  999.0,  999.0,  999.0,  999.0,  999.0,  999.0,  999.0,  999.0,  999.0,  999.0,  999.0,  999.0,  999.0
2006/01/24 13:10,   -1.5,   -0.8,   -0.2,  999.0,   -0.4,   -1.1,   -0.4,   -0.9,   -0.0,    0.4,    0.1,    0.3,    0.5,    0.3,  999.0,  999.0,  999.0,  999.0,  999.0,  999.0,  999.0,  999.0,  999.0,   -0.3,  999.0,  999.0,  999.0,  999.0,  999.0,  999.0
2006/01/24 13:20,   -0.6,   -1.0,    0.1,   -0.3,   -0.5,   -0.2,   -0.5,   -0.5,   -0.8,  999.0,   -0.5,   -0.3,    0.5,    0.0,    0.5,  999.0,  999.0,  999.0,  999.0,  999.0,  999.0,  999.0,  999.0,  999.0,   -0.1,  999.0,  999.0,    1.1,  999.0,  999.0
2006/01/24 13:30,   -1.1,   -0.5,   -0.0,   -0.3,    0.3,   -0.1,   -1.1,   -0.5,   -0.3,    0.3,   -0.1,    0.5,    0.2,    0.3,   -0.0,  999.0,    0.2,  999.0,  999.0,    0.1,  999.0,    0.1,   -0.5,  999.0,  999.0,  999.0,  999.0,  999.0,  999.0,  999.0
2006/01/24 13:40,   -1.8,   -0.4,   -0.2,    0.0,   -0.3,   -0.3,   -0.2,   -0.1,   -0.1,    0.1,   -0.4,   -0.3,    0.1,    0.1,    0.3,  999.0,    0.1,  999.0,  999.0,  999.0,   -0.8,   -0.3,  999.0,  999.0,  999.0,  999.0,  999.0,  999.0,  999.0,  999.0
2006/01/24 13:50,   -2.0,   -0.7,   -0.2,   -0.4,    0.2,   -0.2,   -0.1,   -0.1,   -0.5,   -0.0,   -0.4,    0.5,   -0.0,    0.3,    0.3,    0.0,  999.0,   -0.1,  999.0,  999.0,  999.0,  999.0,  999.0,  999.0,  999.0,  999.0,  999.0,  999.0,  999.0,  999.0
2006/01/24 14:00,   -1.6,   -0.4,    0.4,   -0.6,   -0.6,   -0.3,   -0.3,   -0.8,    0.2,   -0.0,   -0.5,  999.0,   -0.3,   -0.5,    0.0,    0.4,   -0.1,  999.0,    0.2,  999.0,    0.8,  999.0,  999.0,    0.2,  999.0,  999.0,  999.0,  999.0,  999.0,  999.0
2006/01/24 14:10,   -1.3,   -0.3,   -0.0,    0.4,    0.5,    0.2,   -0.7,   -0.9,   -0.5,   -0.5,   -0.5,   -0.6,   -0.4,    0.0,    0.0,    0.1,    0.2,   -0.0,   -0.4,    0.1,   -0.2,  999.0,    0.3,   -0.1,   -0.2,  999.0,  999.0,  999.0,  999.0,  999.0
2006/01/24 14:20,   -1.5,   -2.4,   -1.4,   -1.6,   -0.3,    0.2,   -1.0,   -0.6,   -0.6,   -1.5,   -1.0,   -0.7,   -0.6,   -1.3,   -1.5,   -0.9,   -1.6,   -1.5,   -1.0,   -1.1,   -0.5,   -0.3,   -0.2,  999.0,   -0.2,  999.0,  999.0,  999.0,  999.0,   -0.0
2006/01/24 14:30,  999.0,   -4.2,   -2.8,   -1.9,   -2.3,   -2.3,   -2.1,   -1.5,   -1.9,   -1.1,   -1.0,   -0.8,   -1.3,   -1.4,   -1.4,   -0.9,   -0.9,   -0.8,   -0.8,   -0.8,   -0.5,   -0.0,    0.2,    0.4,   -0.4,    0.0,  999.0,  999.0,  999.0,    0.1
2006/01/24 14:40,   -1.8,   -1.7,   -1.8,   -1.7,   -1.8,   -1.8,   -1.9,   -1.8,   -1.6,   -1.3,   -0.9,   -0.8,   -0.6,   -0.8,   -0.9,   -0.7,   -1.0,   -0.8,   -0.5,   -0.7,   -0.6,   -0.0,   -0.2,    0.3,    0.1,    0.1,  999.0,  999.0,  999.0,    0.0
2006/01/24 14:50,   -2.5,   -3.4,   -2.8,   -2.5,   -2.5,   -2.5,   -2.5,   -2.2,   -2.1,   -1.6,   -1.1,   -1.0,   -0.7,   -1.1,   -1.3,   -1.0,   -0.9,   -1.0,   -0.4,   -0.3,   -0.5,   -0.2,   -0.3,   -0.3,  999.0,  999.0,  999.0,  999.0,  999.0,   -0.1
2006/01/24 15:00,   -1.1,   -1.6,   -1.5,   -1.3,   -1.4,   -1.3,   -1.8,   -1.1,   -1.3,   -1.1,   -0.9,   -1.1,   -1.5,   -0.2,   -1.3,   -1.2,   -1.3,   -1.3,   -1.1,   -0.9,   -0.9,   -0.7,   -0.8,   -0.0,   -0.6,    0.1,  999.0,  999.0,  999.0,   -0.3
2006/01/24 15:10,   -0.3,   -0.2,   -0.2,   -0.1,   -1.7,    0.1,   -0.6,   -2.2,   -2.7,   -2.7,   -3.6,   -3.7,   -3.6,   -4.2,   -4.1,   -3.6,   -3.3,   -2.8,   -2.5,   -2.4,   -2.4,   -1.9,   -2.3,   -2.1,   -1.5,   -1.0,   -1.2,   -1.0,   -1.1,   -0.6
2006/01/24 15:20,   -0.3,   -1.8,   -2.3,   -2.9,   -2.7,   -4.1,   -3.6,   -3.7,   -3.6,   -3.5,   -3.4,   -3.4,   -3.2,   -3.3,   -3.2,   -3.1,   -3.2,   -3.0,   -2.9,   -2.7,   -2.6,   -2.5,   -2.4,   -2.2,   -1.4,   -1.4,   -1.5,   -1.0,   -0.8,   -0.2
2006/01/24 15:30,   -3.7,   -3.8,   -3.6,   -3.5,   -3.6,   -4.1,   -3.0,   -3.3,   -3.4,   -3.5,   -3.5,   -3.5,   -3.4,   -3.2,   -3.1,   -3.0,   -2.8,   -2.3,   -1.7,   -1.3,   -1.3,   -1.1,   -1.0,   -0.8,   -0.8,   -0.5,  999.0,   -1.3,   -0.2,    0.2
2006/01/24 15:40,   -3.5,   -3.6,   -3.6,   -3.5,   -3.4,   -3.2,   -3.1,   -3.0,   -3.0,   -3.0,   -3.1,   -3.0,   -2.7,   -2.5,   -2.2,   -2.3,   -2.3,   -2.8,   -3.0,   -3.0,   -2.2,   -1.7,  999.0,   -2.3,   -1.6,   -1.3,   -1.1,   -0.9,   -0.9,   -0.9
2006/01/24 15:50,   -2.8,   -2.8,   -2.7,   -2.7,   -2.6,   -2.5,   -2.4,   -2.4,   -2.3,   -2.2,   -2.2,   -2.2,   -1.9,   -1.9,   -1.7,   -1.7,   -1.6,   -1.5,   -1.2,   -1.6,   -1.6,   -1.3,   -1.2,   -1.7,   -1.2,   -0.7,   -1.3,   -0.7,   -0.1,   -1.3
2006/01/24 16:00,   -2.2,   -2.3,   -2.4,   -2.4,   -2.3,   -2.2,   -2.1,   -2.1,   -2.0,   -2.0,   -2.0,   -2.0,   -2.0,   -1.9,   -1.8,   -1.3,   -1.4,   -1.3,   -1.2,   -1.1,   -0.8,   -0.4,   -0.2,   -0.2,   -0.9,   -0.6,  999.0,   -0.0,   -0.0,    0.1
2006/01/24 16:10,   -2.0,   -2.2,   -2.3,   -2.3,   -2.4,   -2.7,   -2.8,   -2.8,   -2.8,   -2.8,   -2.7,   -2.6,   -2.5,   -2.4,   -2.2,   -2.1,   -2.0,   -1.9,   -1.6,   -1.4,   -1.2,   -0.8,   -0.2,   -0.6,   -0.4,   -0.3,   -0.3,    0.1,   -0.1,    0.1
2006/01/24 16:20,   -3.2,   -3.2,   -3.4,   -3.3,   -3.3,   -3.2,   -2.9,   -2.8,   -2.8,   -2.7,   -2.6,   -2.6,   -2.6,   -2.5,   -2.4,   -2.1,   -2.2,   -2.1,   -1.7,   -1.5,   -1.1,   -1.1,   -0.9,   -0.8,   -0.4,   -0.3,  999.0,  999.0,  999.0,   -0.1
2006/01/24 16:30,   -3.4,   -2.9,   -2.7,   -2.7,   -2.5,   -2.5,   -2.4,   -2.4,   -2.6,   -2.6,   -2.4,   -2.2,   -2.0,   -1.9,   -1.8,   -1.4,   -1.5,   -1.3,   -1.1,   -0.9,   -0.7,   -0.6,   -0.7,   -0.5,   -0.2,   -0.2,  999.0,  999.0,    0.1,    0.1
2006/01/24 16:40,   -2.9,   -2.8,   -2.9,   -2.6,   -2.4,   -2.3,   -2.3,   -2.6,   -2.6,   -2.4,   -2.3,   -2.3,   -2.0,   -1.9,   -1.7,   -1.4,   -1.4,   -1.2,   -1.1,   -1.2,   -1.9,   -2.1,   -2.0,   -0.9,   -0.6,   -0.1,   -0.1,  999.0,  999.0,   -0.1
2006/01/24 16:50,   -3.0,   -2.8,   -2.8,   -2.6,   -2.6,   -2.4,   -2.4,   -2.4,   -2.5,   -2.1,   -1.9,   -1.8,   -1.7,   -1.7,   -1.7,   -1.4,   -1.4,   -1.2,   -1.1,   -0.8,   -1.8,   -0.6,  999.0,   -0.3,   -0.1,    0.2,  999.0,  999.0,    0.1,   -0.1
2006/01/24 17:00,   -3.2,   -2.5,   -2.6,   -2.7,   -2.6,   -2.6,   -2.7,   -2.8,   -3.0,   -2.7,   -2.5,   -2.0,   -1.6,   -1.6,   -1.5,   -1.4,   -1.4,   -1.4,   -0.3,   -0.0,  999.0,   -0.1,   -0.2,   -0.1,    0.1,   -0.1,  999.0,  999.0,  999.0,    0.1
2006/01/24 17:10,  999.0,    0.6,   -1.2,   -1.9,   -2.0,   -2.5,   -2.6,   -2.5,   -2.2,   -2.2,   -2.2,   -2.2,   -2.0,   -1.8,   -1.6,   -1.2,   -1.0,   -0.8,  999.0,  999.0,  999.0,  999.0,  999.0,   -0.0,   -0.0,  999.0,  999.0,  999.0,  999.0,  999.0
2006/01/24 17:20,  999.0,    0.1,   -0.1,   -0.6,    0.2,   -0.6,   -1.9,   -2.1,   -1.1,   -1.6,   -1.8,   -1.6,   -1.5,   -1.4,   -1.4,   -0.9,   -1.3,   -1.6,  999.0,   -0.3,  999.0,  999.0,  999.0,    0.2,  999.0,  999.0,  999.0,  999.0,  999.0,  999.0
2006/01/24 17:30,   -0.1,    0.1,    0.0,    0.0,   -0.2,   -0.3,   -0.6,   -0.5,   -1.3,   -1.0,   -1.2,   -1.1,   -1.3,   -1.1,   -1.1,   -0.2,  999.0,   -0.8,   -0.8,  999.0,  999.0,  999.0,  999.0,   -0.1,  999.0,  999.0,  999.0,  999.0,   -0.1,    0.2
2006/01/24 17:40,   -0.0,   -0.1,    0.0,    0.2,    0.2,    0.0,   -0.4,    0.0,   -0.2,   -0.4,   -0.5,   -0.7,   -0.9,   -0.4,   -0.3,   -0.2,  999.0,   -0.8,   -0.3,  999.0,  999.0,  999.0,  999.0,  999.0,  999.0,  999.0,  999.0,  999.0,  999.0,  999.0
2006/01/24 17:50,   -0.0,    1.3,   -0.0,   -0.1,    1.0,   -0.3,   -0.0,   -0.0,    0.1,    0.2,    0.1,   -0.1,   -0.4,   -0.7,   -0.6,   -0.3,   -0.2,  999.0,  999.0,  999.0,  999.0,  999.0,  999.0,    0.2,  999.0,  999.0,  999.0,  999.0,  999.0,  999.0
2006/01/24 18:00,   -0.5,    0.7,    0.5,   -0.1,    1.0,   -0.3,    0.0,   -0.2,   -0.0,    0.1,    0.1,    0.2,   -0.3,   -0.6,   -0.4,   -0.6,  999.0,  999.0,  999.0,  999.0,  999.0,  999.0,  999.0,  999.0,  999.0,  999.0,  999.0,  999.0,  999.0,  999.0
2006/01/24 18:10,   -0.4,    0.3,   -0.3,    0.1,    1.8,    0.1,   -0.1,   -0.2,   -0.2,   -0.2,   -0.1,   -0.3,   -0.4,  999.0,   -0.1,   -0.5,  999.0,   -0.8,   -0.4,  999.0,  999.0,  999.0,  999.0,  999.0,  999.0,  999.0,  999.0,  999.0,  999.0,  999.0
2006/01/24 18:20,   -0.2,    0.2,  999.0,    0.1,   -0.3,    0.8,    0.0,   -0.1,   -0.1,   -0.1,   -0.1,   -0.1,  999.0,  999.0,  999.0,  999.0,  999.0,  999.0,   -0.4,  999.0,  999.0,  999.0,  999.0,  999.0,  999.0,  999.0,  999.0,  999.0,  999.0,  999.0
2006/01/24 18:30,   -0.3,    0.3,    0.2,    0.1,    0.4,  999.0,    0.1,    0.2,    0.1,   -0.0,   -0.0,  999.0,    0.0,  999.0,  999.0,  999.0,  999.0,   -0.6,  999.0,   -0.4,  999.0,  999.0,  999.0,  999.0,  999.0,  999.0,  999.0,  999.0,  999.0,  999.0
2006/01/24 18:40,   -0.4,    0.7,    0.2,  999.0,   -0.0,   -0.2,    0.1,    0.1,   -0.2,    0.0,    0.3,    0.2,   -0.6,   -0.1,   -0.6,   -0.6,   -0.7,   -0.7,   -0.7,   -0.6,  999.0,  999.0,  999.0,  999.0,  999.0,  999.0,  999.0,  999.0,  999.0,  999.0
2006/01/24 18:50,    0.4,    1.0,    0.9,    0.6,    0.2,  999.0,   -0.1,    0.1,   -0.1,   -0.4,   -0.0,   -0.0,   -0.4,   -0.1,   -0.3,   -0.6,   -0.7,   -0.7,   -0.9,   -0.2,   -0.2,  999.0,  999.0,  999.0,  999.0,  999.0,   -0.2,  999.0,  999.0,  999.0
2006/01/24 19:00,    0.1,   -0.1,    0.1,  999.0,    0.8,  999.0,    0.8,    0.9,    1.4,   -0.4,   -0.6,  999.0,   -0.1,    0.0,    0.1,   -0.1,   -0.8,   -0.9,  999.0,   -0.2,  999.0,  999.0,  999.0,   -0.1,  999.0,  999.0,   -1.4,  999.0,  999.0,  999.0
2006/01/24 19:10,   -0.4,    0.4,   -0.2,   -0.9,    0.1,   -0.5,   -0.4,   -0.4,   -0.2,   -0.3,   -0.5,   -0.2,   -0.3,   -0.4,   -0.2,   -0.3,   -0.6,   -0.4,  999.0,   -0.9,    0.1,  999.0,  999.0,   -0.1,  999.0,  999.0,  999.0,  999.0,  999.0,  999.0
2006/01/24 19:20,   -0.2,    0.3,    0.4,    0.8,   -0.0,   -0.2,   -0.5,   -0.2,   -0.6,   -0.3,   -0.4,   -1.0,   -1.1,   -1.0,   -0.5,   -0.1,  999.0,  999.0,   -0.6,  999.0,    0.5,    0.0,  999.0,   -0.0,   -0.1,   -0.3,  999.0,  999.0,  999.0,  999.0
2006/01/24 19:30,   -0.1,    0.1,    0.0,  999.0,   -0.3,  999.0,   -0.3,   -0.2,   -0.2,    0.1,    0.1,   -0.6,   -0.2,  999.0,    0.0,  999.0,  999.0,  999.0,   -0.4,   -0.5,   -0.4,   -0.4,  999.0,   -0.3,  999.0,  999.0,  999.0,  999.0,  999.0,  999.0
2006/01/24 19:40,   -0.2,    0.3,   -0.2,   -0.2,   -0.4,   -0.2,   -0.0,   -0.3,   -0.3,   -0.3,   -0.4,   -0.6,   -1.3,   -0.9,   -1.2,   -0.7,   -1.3,   -1.2,   -1.3,   -1.2,   -1.0,  999.0,  999.0,   -0.0,    0.3,  999.0,  999.0,  999.0,  999.0,  999.0
2006/01/24 19:50,   -0.5,    0.4,    0.1,   -0.3,    0.6,   -0.2,   -0.0,   -0.2,   -0.3,   -0.4,  999.0,   -0.2,   -0.8,   -1.8,   -1.1,   -1.2,   -1.2,   -1.2,   -0.9,   -1.5,  999.0,   -0.4,  999.0,   -0.0,  999.0,    0.1,  999.0,  999.0,  999.0,  999.0
2006/01/24 20:00,   -0.2,    0.1,    0.2,   -0.3,   -0.1,   -0.2,   -0.1,    0.2,   -0.5,   -0.0,  999.0,   -0.4,   -0.7,  999.0,   -0.9,   -1.1,   -1.3,   -1.1,   -0.9,   -1.1,  999.0,    0.1,  999.0,    0.2,  999.0,  999.0,  999.0,  999.0,  999.0,  999.0
2006/01/24 20:10,   -0.2,    0.1,    0.0,    0.2,   -0.1,    0.1,    0.3,   -0.2,    0.0,   -0.3,  999.0,   -0.1,  999.0,  999.0,  999.0,   -0.0,   -0.6,  999.0,  999.0,  999.0,    0.2,  999.0,  999.0,  999.0,  999.0,  999.0,  999.0,  999.0,  999.0,  999.0
2006/01/24 20:20,    0.2,    0.2,    0.3,    0.2,    0.2,    0.5,    0.3,    0.2,    0.4,   -0.0,  999.0,    0.2,  999.0,  999.0,  999.0,   -0.1,  999.0,  999.0,  999.0,  999.0,  999.0,  999.0,  999.0,  999.0,  999.0,  999.0,    1.9,  999.0,  999.0,  999.0
2006/01/24 20:30,    0.4,    0.3,    0.0,   -0.2,    0.0,  999.0,    0.2,  999.0,  999.0,  999.0,  999.0,    0.2,  999.0,  999.0,  999.0,   -0.2,  999.0,   -0.1,  999.0,  999.0,  999.0,  999.0,  999.0,  999.0,  999.0,  999.0,  999.0,  999.0,  999.0,  999.0
2006/01/24 20:40,   -0.2,    0.1,  999.0,   -0.2,  999.0,    0.2,    0.1,    0.3,    0.1,  999.0,  999.0,    0.1,  999.0,  999.0,   -0.2,    0.0,  999.0,  999.0,  999.0,  999.0,  999.0,  999.0,  999.0,  999.0,  999.0,  999.0,  999.0,  999.0,  999.0,  999.0
2006/01/24 20:50,   -0.4,    0.5,  999.0,    0.0,    0.1,    0.0,    0.3,    0.0,    0.3,    0.1,    0.2,    0.3,  999.0,  999.0,  999.0,    0.1,   -0.0,  999.0,  999.0,  999.0,  999.0,  999.0,  999.0,  999.0,  999.0,  999.0,  999.0,  999.0,  999.0,  999.0
2006/01/24 21:00,   -0.4,    0.3,  999.0,  999.0,   -0.0,   -0.0,    0.1,    0.2,    0.1,    0.0,    0.2,    0.3,  999.0,  999.0,  999.0,   -0.0,  999.0,  999.0,    0.1,  999.0,   -0.0,  999.0,  999.0,  999.0,    0.2,  999.0,  999.0,  999.0,  999.0,  999.0
2006/01/24 21:10,   -0.0,    0.3,    0.2,   -0.0,    0.2,    0.2,    0.1,  999.0,   -0.2,  999.0,   -0.3,    0.1,    0.0,  999.0,    0.4,   -0.1,   -0.0,   -0.2,  999.0,  999.0,  999.0,  999.0,  999.0,  999.0,  999.0,  999.0,  999.0,  999.0,  999.0,  999.0
2006/01/24 21:20,   -0.0,    0.2,    0.2,   -0.1,   -0.0,   -0.1,   -0.0,    0.2,   -0.1,   -0.3,   -0.0,    0.1,    0.1,  999.0,    0.1,   -0.0,   -0.4,   -0.6,   -0.7,  999.0,  999.0,  999.0,  999.0,  999.0,  999.0,  999.0,  999.0,  999.0,  999.0,  999.0
2006/01/24 21:30,    0.2,    0.3,    0.3,  999.0,  999.0,    0.4,    0.0,    0.2,   -0.3,  999.0,   -0.2,    0.2,  999.0,  999.0,  999.0,   -0.1,    0.1,   -0.5,  999.0,  999.0,  999.0,  999.0,  999.0,  999.0,  999.0,  999.0,  999.0,  999.0,  999.0,  999.0
2006/01/24 21:40,   -0.1,    0.6,    0.3,    0.4,  999.0,    0.2,    0.1,    0.8,    0.2,  999.0,    0.0,    0.1,   -0.2,  999.0,  999.0,    0.6,  999.0,  999.0,   -0.3,  999.0,    0.2,  999.0,  999.0,  999.0,   -0.2,  999.0,  999.0,  999.0,  999.0,  999.0
2006/01/24 21:50,   -0.0,    0.2,   -0.1,    0.3,    0.2,    0.3,    0.2,    0.1,    0.1,  999.0,  999.0,    0.1,    0.1,  999.0,  999.0,    0.1,  999.0,  999.0,  999.0,  999.0,  999.0,  999.0,  999.0,  999.0,  999.0,  999.0,   -0.1,  999.0,  999.0,  999.0
2006/01/24 22:00,    0.1,   -0.1,   -0.3,  999.0,   -1.5,  999.0,   -0.2,    0.0,    0.2,  999.0,    0.3,   -0.2,    0.2,  999.0,  999.0,  999.0,  999.0,  999.0,  999.0,  999.0,  999.0,  999.0,  999.0,  999.0,  999.0,  999.0,  999.0,  999.0,  999.0,  999.0
2006/01/24 22:10,   -0.4,    0.2,    0.1,  999.0,  999.0,   -0.3,   -0.0,   -0.3,   -0.0,  999.0,   -0.0,   -0.1,   -0.2,   -0.0,   -0.3,   -0.0,  999.0,  999.0,  999.0,  999.0,  999.0,  999.0,  999.0,  999.0,  999.0,  999.0,  999.0,  999.0,  999.0,  999.0
2006/01/24 22:20,   -0.5,    0.3,    0.1,    0.1,  999.0,    0.3,    0.1,    0.1,   -0.1,   -0.2,  999.0,   -0.0,  999.0,   -0.3,  999.0,   -0.1,  999.0,  999.0,  999.0,   -1.9,  999.0,  999.0,  999.0,   -0.1,  999.0,  999.0,  999.0,  999.0,  999.0,  999.0
2006/01/24 22:30,   -0.6,   -0.0,    0.4,    0.1,    1.4,  999.0,    0.2,    0.4,    0.0,  999.0,   -0.0,   -0.0,   -0.1,   -0.5,  999.0,   -0.1,  999.0,  999.0,  999.0,  999.0,  999.0,  999.0,  999.0,  999.0,  999.0,  999.0,  999.0,  999.0,  999.0,  999.0
2006/01/24 22:40,   -0.3,    0.3,    0.2,    0.2,    0.3,  999.0,    0.0,    0.4,    0.0,  999.0,  999.0,    0.1,  999.0,   -0.2,  999.0,   -0.0,  999.0,  999.0,  999.0,  999.0,  999.0,  999.0,  999.0,  999.0,  999.0,  999.0,  999.0,  999.0,  999.0,  999.0
2006/01/24 22:50,   -0.5,    0.3,    0.5,    0.1,    0.2,    0.2,    0.1,    0.3,   -0.1,  999.0,    0.1,    0.1,    0.0,    0.0,  999.0,   -0.3,  999.0,  999.0,  999.0,  999.0,  999.0,  999.0,  999.0,   -0.4,  999.0,  999.0,  999.0,  999.0,  999.0,  999.0
2006/01/24 23:00,   -0.9,    0.2,    0.2,    0.3,    0.3,    0.3,   -0.2,    0.4,    0.0,  999.0,  999.0,  999.0,  999.0,    0.2,  999.0,   -0.1,  999.0,  999.0,  999.0,  999.0,  999.0,  999.0,  999.0,  999.0,  999.0,  999.0,  999.0,  999.0,  999.0,  999.0
2006/01/24 23:10,   -0.8,    0.1,    0.8,    0.3,    0.3,    0.3,    0.3,    0.2,    0.4,  999.0,   -0.0,    0.0,   -0.3,  999.0,  999.0,    0.2,  999.0,  999.0,  999.0,  999.0,  999.0,  999.0,  999.0,   -0.1,  999.0,  999.0,  999.0,  999.0,  999.0,  999.0
2006/01/24 23:20,   -0.4,    0.2,    0.5,    0.4,   -0.0,    0.2,    0.3,    0.4,    0.3,  999.0,  999.0,    0.0,  999.0,   -0.3,  999.0,  999.0,    0.1,  999.0,  999.0,  999.0,  999.0,  999.0,  999.0,  999.0,  999.0,   -1.8,  999.0,  999.0,  999.0,  999.0
2006/01/24 23:30,    0.2,    0.2,  999.0,  999.0,  999.0,    0.2,   -0.1,  999.0,    0.2,  999.0,  999.0,   -0.1,  999.0,  999.0,  999.0,  999.0,  999.0,  999.0,  999.0,  999.0,   -0.8,  999.0,  999.0,  999.0,  999.0,  999.0,  999.0,  999.0,  999.0,  999.0
2006/01/24 23:40,   -0.2,    0.0,  999.0,  999.0,   -0.1,    0.4,    0.3,    0.1,    0.2,  999.0,    0.2,   -0.3,  999.0,  999.0,  999.0,    0.4,  999.0,  999.0,  999.0,  999.0,  999.0,  999.0,  999.0,  999.0,  999.0,   -0.2,  999.0,  999.0,  999.0,  999.0
2006/01/24 23:50,   -0.6,    0.8,    0.3,   -0.7,    0.3,    0.3,  999.0,    0.2,    0.1,   -0.2,   -0.0,    0.2,   -0.1,  999.0,  999.0,  999.0,  999.0,  999.0,  999.0,  999.0,  999.0,  999.0,  999.0,  999.0,  999.0,  999.0,  999.0,  999.0,  999.0,  999.0
